Weather History for La Junta, CO

Change the Weather History Date:

Saturday, March 15, 2014

  Actual Average Record
Temperature  
Mean Temperature 48 °F 44 °F  
Max Temperature 63 °F 59 °F 83 °F (2013)
Min Temperature 32 °F 29 °F 6 °F (1969)
Degree Days  
Heating Degree Days 17 21  
Month to date heating degree days 364 350  
Since 1 July heating degree days 4440 4451  
Cooling Degree Days 0 0  
Month to date cooling degree days 0 0  
Year to date cooling degree days 0 0  
Moisture  
Dew Point 23 °F    
Average Humidity 50    
Maximum Humidity 82    
Minimum Humidity 17    
Precipitation  
Precipitation T in 0.03 in 1.12 in (1946)
Month to date precipitation 0.29 0.32  
Year to date precipitation 0.59 0.97  
Sea Level Pressure  
Sea Level Pressure 29.97 in    
Wind  
Wind Speed 21 mph (NNW)    
Max Wind Speed 45 mph    
Max Gust Speed 56 mph    
Visibility 5 miles    
Events Rain    
T = Trace of Precipitation, MM = Missing Value Source: NWS Daily Summary

Daily Weather History Graph

Daily Weather History Graph

Search for Another Location

Airport:

Trip Planner

Search our weather history database for the weather conditions in past years. The results will help you decide how hot, cold, wet, or windy it might be!

Date:

Astronomy

Mar. 15, 2014 Rise Set
Actual Time 7:05 AM MDT 7:01 PM MDT
Civil Twilight 6:38 AM MDT 7:27 PM MDT
Nautical Twilight 6:08 AM MDT 7:58 PM MDT
Astronomical Twilight 5:37 AM MDT 8:29 PM MDT
Moon 6:22 PM MDT (3/15) 6:17 AM MDT (3/15)
Length of Visible Light 12h 48m
Length of Day
11h 56m
Waxing Gibbous, 99% of the Moon is Illuminated
Mar 15
Waxing Gibbous
Mar 16
Full
Mar 23
Last Quarter
Mar 30
New
Apr 7
First Quarter

Hourly Weather History & Observations

Time (MDT) Temp. Windchill Dew Point Humidity Pressure Visibility Wind Dir Wind Speed Gust Speed Precip Events Conditions
12:53 AM 46.9 °F - 28.9 °F 50% 29.80 in 10.0 mi SSW 18.4 mph - N/A   Clear
1:53 AM 44.1 °F 37.1 °F 28.9 °F 55% 29.80 in 10.0 mi SW 15.0 mph - N/A   Clear
2:53 AM 44.1 °F 36.8 °F 30.0 °F 58% 29.78 in 10.0 mi WSW 16.1 mph - N/A   Clear
3:53 AM 37.9 °F 29.6 °F 28.9 °F 70% 29.77 in 10.0 mi West 13.8 mph - N/A   Clear
4:53 AM 34.0 °F 24.6 °F 28.0 °F 79% 29.78 in 10.0 mi West 13.8 mph - N/A   Clear
5:53 AM 34.0 °F 24.2 °F 27.0 °F 75% 29.78 in 10.0 mi West 15.0 mph - N/A   Clear
6:53 AM 33.1 °F 24.9 °F 25.0 °F 72% 29.80 in 10.0 mi West 10.4 mph - N/A   Clear
7:53 AM 36.0 °F 27.1 °F 25.0 °F 64% 29.82 in 10.0 mi WNW 13.8 mph - N/A   Clear
8:53 AM 44.1 °F 38.6 °F 26.1 °F 49% 29.82 in 10.0 mi WNW 10.4 mph - N/A   Clear
9:53 AM 54.0 °F - 21.9 °F 29% 29.82 in 10.0 mi NE 5.8 mph - N/A   Clear
10:53 AM 57.9 °F - 16.0 °F 19% 29.83 in 10.0 mi North - - N/A   Clear
11:53 AM 61.0 °F - 15.1 °F 17% 29.83 in 7.0 mi North 21.9 mph 32.2 mph N/A   Mostly Cloudy
12:43 PM 57.9 °F - 19.0 °F 22% 29.93 in 0.8 mi North 38.0 mph 44.9 mph N/A   Haze
12:53 PM 55.9 °F - 19.9 °F 25% 29.86 in 0.2 mi North 32.2 mph 40.3 mph N/A   Haze
1:00 PM 57.0 °F - 19.9 °F 24% 29.94 in 1.2 mi North 29.9 mph 39.1 mph N/A   Haze
1:08 PM 57.0 °F - 19.0 °F 23% 29.94 in 0.8 mi North 27.6 mph 41.4 mph N/A   Haze
1:13 PM 57.0 °F - 18.0 °F 22% 29.94 in 1.2 mi NNW 31.1 mph 39.1 mph N/A   Haze
1:20 PM 57.0 °F - 17.1 °F 21% 29.94 in 0.8 mi North 32.2 mph 41.4 mph N/A   Haze
1:33 PM 55.9 °F - 17.1 °F 22% 29.95 in 0.5 mi North 34.5 mph 43.7 mph N/A   Haze
1:53 PM 55.9 °F - 21.0 °F 26% 29.89 in 0.2 mi NNW 36.8 mph 46.0 mph 0.00 in Rain Light Rain
2:15 PM 53.1 °F - 19.0 °F 26% 29.96 in 0.2 mi North 38.0 mph 49.5 mph 0.00 in Rain Light Rain
2:53 PM 51.1 °F - 24.1 °F 35% 29.94 in 0.2 mi North 39.1 mph 47.2 mph 0.00 in Rain Light Rain
3:09 PM 51.1 °F - 24.1 °F 35% 29.99 in 0.2 mi North 36.8 mph 50.6 mph 0.00 in Rain Light Rain
3:53 PM 51.1 °F - 21.9 °F 32% 29.98 in 0.2 mi North 35.7 mph 48.3 mph 0.00 in Rain Light Rain
4:53 PM 51.1 °F - 21.9 °F 32% 30.01 in 0.8 mi NNE 36.8 mph 50.6 mph 0.00 in   Haze
5:24 PM 48.9 °F - 21.9 °F 35% 30.07 in 1.2 mi North 38.0 mph 44.9 mph N/A   Haze
5:30 PM 48.9 °F - 21.9 °F 35% 30.07 in 0.8 mi NNE 39.1 mph 48.3 mph N/A   Haze
5:41 PM 48.0 °F - 21.0 °F 34% 30.08 in 1.2 mi NNE 35.7 mph 47.2 mph N/A   Haze
5:49 PM 48.2 °F - 21.2 °F 34% 30.08 in 3.0 mi North 36.8 mph 46.0 mph N/A   Haze
5:50 PM 48.0 °F - 21.9 °F 36% 30.07 in 3.0 mi NNE 34.5 mph 46.0 mph N/A   Haze
5:56 PM 48.0 °F - 21.0 °F 34% 30.10 in 1.8 mi North 41.4 mph 48.3 mph N/A   Haze
6:11 PM 48.0 °F - 21.0 °F 34% 30.10 in 3.0 mi North 32.2 mph 43.7 mph N/A   Haze
6:27 PM 46.9 °F - 21.0 °F 36% 30.12 in 4.0 mi North 32.2 mph 41.4 mph N/A   Haze
6:53 PM 45.0 °F 34.4 °F 23.0 °F 42% 30.14 in 5.0 mi North 35.7 mph 39.1 mph N/A   Haze
7:53 PM 42.1 °F 32.3 °F 27.0 °F 55% 30.19 in 10.0 mi North 24.2 mph 38.0 mph N/A   Clear
8:53 PM 39.9 °F 30.5 °F 28.0 °F 63% 30.21 in 10.0 mi NNE 19.6 mph - N/A   Clear
9:53 PM 37.9 °F 30.0 °F 28.0 °F 68% 30.22 in 10.0 mi North 12.7 mph - N/A   Clear
10:53 PM 36.0 °F 28.5 °F 27.0 °F 70% 30.24 in 10.0 mi NNW 10.4 mph - N/A   Clear
11:53 PM 36.0 °F 28.5 °F 26.1 °F 67% 30.25 in 10.0 mi NNW 10.4 mph - N/A   Clear